ZHONGXING-1E

Last updated on Tue Oct 15 2024 00:02:42 GMT+0000 (Coordinated Universal Time)

1 53813U 22112A 24288.57271817 -.00000152 00000+0 00000+0 0 9997 2 53813 0.0735 73.0956 0003410 186.9785 51.1321 1.00272048 7722
UTC large
Height (km)
Speed (km/s)
/
Latitude / Longitude
Inclination (degrees)
Orbital Period (minutes)
Azimuth
Elevation
Range (km)
Doppler Factor

Next 0 passes for location: London (51.5072 / 0.1276)

Sorry there are no passes over London.